Location: Chinatown
(37.7966°N, 122.4086°W)
Time: 21:26:43
(UTC+00:00)

BlueWalker 3 - Visible Passes

Search period start: 19 January 2026 00:00
Search period end: 29 January 2026 00:00
Orbit: 451 x 463 km, 53.2° (Epoch: 19 January)

Date Brightness Start Highest point End Pass type
(mag) Time Alt. Az. Time Alt. Az. Time Alt. Az.
19 Jan 2.3 02:52:17 10° SSW 02:55:25 39° SE 02:55:25 39° SE visible
20 Jan 2.8 02:17:13 10° SSW 02:20:21 29° SE 02:21:58 20° E visible
20 Jan 4.6 03:54:39 10° W 03:55:44 17° W 03:55:44 17° W visible
21 Jan 3.3 01:42:16 10° S 01:45:03 22° SE 01:47:50 10° ENE visible
21 Jan 3.0 03:19:02 10° WSW 03:22:10 36° NW 03:22:10 36° NW visible
22 Jan 2.4 02:43:28 10° WSW 02:46:56 48° NW 02:48:31 27° NNE visible
23 Jan 2.0 02:07:58 10° WSW 02:11:30 65° NW 02:14:47 12° NE visible
23 Jan 4.7 03:47:52 10° NW 03:48:32 12° NW 03:48:32 12° NW visible
24 Jan 4.1 03:11:52 10° WNW 03:14:01 15° NNW 03:14:43 14° NNW visible
25 Jan 4.0 02:35:56 10° WNW 02:38:27 18° NNW 02:40:50 11° NNE visible
26 Jan 3.7 02:00:05 10° W 02:02:54 21° NNW 02:05:43 10° NNE visible
